#timestamp,LO_Frequency,Hit,StdDev 
1459728015.4,286047000.3,N
1459728035.2,286047001.1,N
1459728055.1,286047000.5,N
1459728056.0,286047000.5,N
1459728075.8,286047001.0,N
1459728095.6,286046998.5,N
1459728115.4,286047002.4,N
1459728135.3,286047002.8,N
1459728155.1,286047002.8,N
1459728175.8,286047000.0,N
1459728195.7,286047000.4,N
1459728215.5,286047002.1,N
1459728235.3,286047002.6,N
1459728255.2,286047003.8,N
1459728275.9,286047004.3,N
1459728295.7,286047002.8,N
1459728315.6,286047001.9,N
1459728335.4,286047001.6,N
1459728355.2,286047000.1,N
1459728375.1,286047000.2,N
1459728376.0,286047000.2,N
1459728395.8,286047000.1,N
1459728415.6,286047000.2,N
1459728435.5,286047000.0,N
1459728455.3,286047002.0,N
1459728475.1,286047001.3,N
1459728495.8,286047001.7,N
1459728515.7,286046999.9,N
1459728535.5,286047000.2,N
1459728555.3,286046999.8,N
1459728575.2,286047000.3,N
1459728595.9,286046998.7,N
1459728615.7,286047000.7,N
1459728635.6,286047001.2,N
1459728655.4,286046999.4,N
1459728675.2,286047001.1,N
1459728695.1,286047000.9,N
1459728696.0,286047000.9,N
1459728715.8,286047002.6,N
1459728735.6,286047001.7,N
1459728755.5,286047001.4,N
1459728775.3,286047003.7,N
1459728795.1,286047006.0,Y
1459728815.9,286047002.8,P
1459728835.7,286047002.4,N
1459728855.5,286047000.0,N
1459728875.3,286047002.7,N
1459728895.2,286047001.5,N
1459728915.0,286047002.2,N
1459728915.9,286047002.2,N
1459728935.7,286047000.7,N
1459728955.6,286046998.1,N
1459728975.4,286047001.1,N
1459728995.2,286047002.5,N
1459729015.1,286047002.5,N
1459729016.0,286047002.5,N
1459729035.8,286047002.2,N
1459729055.6,286047003.4,N
1459729075.5,286047005.9,Y
1459729095.3,286047004.0,P
1459729115.1,286047003.2,N
1459729135.9,286047004.7,P
1459729155.7,286047006.6,Y
1459729175.5,286047004.3,P
1459729195.4,286047001.7,P
1459729215.2,286047002.3,N
1459729235.0,286047001.9,N
1459729235.9,286047001.9,N
1459729255.8,286047005.8,Y
1459729275.6,286047001.3,P
1459729295.4,286047002.2,P
1459729315.3,286047002.4,P
1459729335.1,286047002.1,Y
1459729336.0,286047002.1,P
1459729355.8,286047001.8,P
1459729375.7,286047001.9,P
1459729395.5,286046999.7,N
1459729415.3,286047001.0,N
1459729435.2,286047000.2,N
1459729455.9,286046999.8,N
1459729475.7,286047000.0,N
1459729495.5,286047002.7,N
1459729515.4,286047003.5,Y
1459729535.2,286047004.0,P
1459729555.0,286047003.7,N
1459729556.0,286047003.7,N
1459729575.8,286047006.0,Y
1459729595.6,286047001.5,P
1459729615.5,286046998.6,N
1459729635.3,286046998.2,N
1459729655.1,286046998.9,N
1459729675.8,286047001.0,N
1459729695.7,286047000.4,N
1459729715.5,286046997.2,N
1459729735.3,286046996.2,N
1459729755.2,286046995.8,N
1459729775.9,286046999.0,N
1459729795.7,286046999.3,N
1459729815.6,286047000.1,N
1459729835.4,286046999.4,N
1459729855.2,286046995.0,N
1459729875.1,286046997.3,N
1459729876.0,286046997.3,N
1459729895.8,286046999.6,N
1459729915.6,286046999.6,N
1459729935.4,286046995.1,N
1459729955.3,286046995.2,N
1459729975.1,286046993.8,N
1459729995.8,286046994.9,N
1459730015.7,286046995.2,N
1459730035.5,286046997.5,N
1459730055.3,286046999.0,N
1459730075.2,286046999.6,N
1459730095.9,286046993.8,N
1459730115.7,286046994.9,N
1459730135.6,286046999.2,N
1459730155.4,286046997.0,N
1459730175.2,286046996.8,N
1459730195.0,286046998.7,N
1459730196.0,286046998.7,N
1459730215.8,286046998.2,N
1459730235.6,286046998.7,N
1459730255.4,286046999.3,N
1459730275.3,286046998.9,N
1459730295.1,286046996.8,N
1459730315.8,286046996.9,N
1459730335.7,286046999.4,N
1459730355.5,286046997.1,N
1459730375.3,286046997.9,N
1459730395.2,286046995.0,N
1459730415.9,286046996.8,N
1459730435.7,286046998.8,N
1459730455.6,286046997.4,N
1459730475.4,286046997.3,N
1459730495.2,286046996.5,N
1459730515.1,286046997.4,N
1459730516.0,286046997.4,N
1459730535.8,286046999.0,N
1459730555.6,286046997.1,N
1459730575.5,286046996.7,N
1459730595.3,286046995.3,Y
1459730615.1,286046998.1,P
1459730635.9,286046999.2,P
1459730655.7,286046999.2,N
1459730675.5,286046997.9,Y
1459730695.4,286047000.4,P
1459730715.2,286046999.3,N
1459730735.0,286047002.2,N
1459730735.9,286047002.2,N
1459730755.7,286047001.9,N
1459730775.6,286047002.4,N
1459730795.4,286047002.3,N
1459730815.2,286047000.4,N
1459730835.1,286047001.2,N
1459730836.0,286047001.2,N
1459730855.8,286046998.9,N
1459730875.6,286047000.5,N
1459730895.5,286046996.9,N
1459730915.3,286046999.6,N
1459730935.1,286046999.2,N
1459730955.9,286046998.7,N
1459730975.7,286047002.3,N
1459730995.5,286047002.2,N
1459731015.4,286047004.4,N
1459731035.2,286047002.9,N
1459731055.0,286047001.4,N
1459731055.9,286047001.4,N
1459731075.8,286047003.5,N
1459731095.6,286047003.1,N
1459731115.4,286047002.3,N
1459731135.2,286046999.8,N
1459731155.1,286047000.0,N
1459731156.0,286047000.0,N
1459731175.8,286047001.5,N
1459731195.6,286047003.8,N
1459731215.5,286047002.1,N
1459731235.3,286047001.7,N
1459731255.1,286047002.0,N
1459731275.9,286047003.6,N
1459731295.7,286047001.5,N
1459731315.5,286047004.0,N
1459731335.4,286046999.9,N
1459731355.2,286046999.8,N
1459731375.0,286047001.6,N
1459731375.9,286047001.6,N
1459731395.8,286047002.5,N
1459731415.6,286046998.8,N
1459731435.4,286047002.3,N
1459731455.3,286047002.5,N
1459731475.1,286047000.0,N
1459731476.0,286047000.0,N
1459731495.8,286046998.6,N
1459731515.7,286047001.1,N
1459731535.5,286046999.3,N
1459731555.3,286047000.1,N
1459731575.1,286047000.9,N
1459731595.9,286046998.4,N
